Imperial, NE

2:47 AM MST on December 07, 2016 (GMT -0700)
Imperial Municipal

Weather History for KIML - November, 2014

Change the Weather History Date:

Wednesday, November 26, 2014

  Actual Average Record
Temperature  
Mean Temperature 32 °F 33 °F  
Max Temperature 37 °F 46 °F 74 °F (1995)
Min Temperature 26 °F 20 °F -10 °F (1896)
Degree Days  
Heating Degree Days 33 32  
Month to date heating degree days 793 687  
Cooling Degree Days 0 0  
Month to date cooling degree days 0 0  
Year to date cooling degree days 955 963  
Moisture  
Dew Point 24 °F    
Average Humidity 74    
Maximum Humidity 92    
Minimum Humidity 56    
Precipitation  
Precipitation T in 0.01 in 0.42 in (2001)
Sea Level Pressure  
Sea Level Pressure 30.31 in    
Wind  
Wind Speed 10 mph (NW)    
Max Wind Speed 25 mph    
Max Gust Speed 31 mph    
Visibility 8 miles    
Events Snow    
T = Trace of Precipitation, MM = Missing Value Source: NWS Daily Summary

Daily Weather History Graph

Daily Weather History Graph

Search for Another Location

Airport or City:

Trip Planner

Search our weather history database for the weather conditions in past years. The results will help you decide how hot, cold, wet, or windy it might be!

Date:

Astronomy

Nov. 26, 2014 Rise Set
Actual Time 6:45 AM MST 4:22 PM MST
Civil Twilight 6:15 AM MST 4:52 PM MST
Nautical Twilight 5:41 AM MST 5:25 PM MST
Astronomical Twilight 5:09 AM MST 5:58 PM MST
Moon 10:18 AM MST (11/26) 8:56 PM MST (11/26)
Length of Visible Light 10h 36m
Length of Day
9h 36m
Waxing Crescent, 22% of the Moon is Illuminated
Nov 26
Waxing Crescent
Nov 29
First Quarter
Dec 6
Full
Dec 14
Last Quarter
Dec 21
New

Hourly Weather History & Observations

Time (MST) Temp. Windchill Dew Point Humidity Pressure Visibility Wind Dir Wind Speed Gust Speed Precip Events Conditions
12:53 AM 36.0 °F 26.3 °F 26.1 °F 67% 30.08 in 10.0 mi WNW 16.1 mph - N/A   Overcast
1:53 AM 35.1 °F 25.2 °F 23.0 °F 61% 30.10 in 10.0 mi NW 16.1 mph - N/A   Overcast
2:53 AM 35.1 °F 24.8 °F 24.1 °F 64% 30.12 in 10.0 mi NW 17.3 mph - N/A   Overcast
3:53 AM 34.0 °F 24.2 °F 23.0 °F 64% 30.16 in 10.0 mi WNW 15.0 mph - N/A   Overcast
4:53 AM 34.0 °F 24.6 °F 21.9 °F 61% 30.19 in 10.0 mi NW 13.8 mph - N/A   Overcast
5:53 AM 34.0 °F 23.4 °F 21.0 °F 59% 30.22 in 10.0 mi NNW 17.3 mph 23.0 mph N/A   Overcast
6:53 AM 30.9 °F 19.1 °F 18.0 °F 59% 30.26 in 10.0 mi NNW 18.4 mph - N/A   Overcast
7:53 AM 30.9 °F 19.8 °F 19.0 °F 61% 30.29 in 10.0 mi NNW 16.1 mph - N/A   Overcast
8:53 AM 30.9 °F 20.2 °F 19.0 °F 61% 30.32 in 10.0 mi NNW 15.0 mph - N/A   Overcast
9:53 AM 32.0 °F 20.5 °F 19.0 °F 59% 30.34 in 10.0 mi NNW 18.4 mph - N/A   Overcast
10:53 AM 33.1 °F 23.4 °F 19.9 °F 59% 30.35 in 10.0 mi NNW 13.8 mph - N/A   Overcast
11:53 AM 35.1 °F 25.9 °F 21.0 °F 57% 30.32 in 10.0 mi NNW 13.8 mph - N/A   Overcast
12:53 PM 34.0 °F 25.0 °F 21.0 °F 59% 30.34 in 10.0 mi NNW 12.7 mph - N/A   Overcast
1:53 PM 32.0 °F 24.8 °F 24.1 °F 73% 30.35 in 5.0 mi NNW 8.1 mph - 0.00 in Snow Light Snow
2:53 PM 32.0 °F 27.5 °F 26.1 °F 79% 30.36 in 4.0 mi West 4.6 mph - 0.00 in Snow Light Snow
3:41 PM 30.9 °F 26.2 °F 27.0 °F 85% 30.31 in 1.8 mi WNW 4.6 mph - 0.00 in Snow Light Snow
3:49 PM 30.2 °F 25.4 °F 26.6 °F 86% 30.31 in 1.8 mi West 4.6 mph - 0.00 in Snow Light Snow
3:53 PM 30.9 °F 25.2 °F 27.0 °F 85% 30.39 in 2.5 mi West 5.8 mph - 0.00 in Snow Light Snow
4:00 PM 30.9 °F 26.2 °F 27.0 °F 85% 30.31 in 5.0 mi WNW 4.6 mph - 0.00 in   Overcast
4:53 PM 30.9 °F - 27.0 °F 85% 30.40 in 10.0 mi Calm Calm - 0.00 in   Overcast
5:53 PM 30.9 °F - 27.0 °F 85% 30.40 in 10.0 mi Calm Calm - 0.00 in   Overcast
6:53 PM 30.9 °F 27.5 °F 27.0 °F 85% 30.42 in 10.0 mi WSW 3.5 mph - 0.00 in   Overcast
7:53 PM 30.9 °F - 28.0 °F 89% 30.43 in 10.0 mi Calm Calm - 0.00 in   Overcast
8:53 PM 30.9 °F 27.5 °F 27.0 °F 85% 30.43 in 10.0 mi SSE 3.5 mph - N/A   Overcast
9:53 PM 30.9 °F 24.3 °F 28.0 °F 89% 30.41 in 10.0 mi South 6.9 mph - N/A   Overcast
10:53 PM 28.0 °F 24.2 °F 26.1 °F 92% 30.43 in 9.0 mi SE 3.5 mph - N/A   Mostly Cloudy
11:53 PM 26.1 °F 19.4 °F 23.0 °F 88% 30.42 in 9.0 mi South 5.8 mph - N/A   Clear